Location: *
(17.3280°S, 114.7300°W)
Time: 14:06:13
(UTC+00:00)

Hubble Space Telescope - Pass Details

Date: 02 November 2020
Orbit: 536 x 540 km, 28.5° (Epoch: 29 November)

Event Time Altitude Azimuth Distance (km) Brightness Sun altitude
Rises 04:09:44 0° 286° (WNW) 2,671 4.9 -32.6°
Reaches altitude 10° 04:12:01 10° 282° (WNW) 1,784 3.9 -33.1°
Enters shadow 04:12:20 12° 281° (W) 1,665 3.7 -33.1°
